Location: Arrodets-la-Barthe
(43.0306°N, 0.2829°E)
Time: 19:25:15
(UTC+00:00)

Cosmos 1844 Rocket - Pass Details

Date: 24 October 2021
Orbit: 826 x 843 km, 71.0° (Epoch: 02 December)

Event Time Altitude Azimuth Distance (km) Brightness Sun altitude
Rises 19:04:35 0° 334° (NNW) 3,373 6.3 -23.0°
Reaches altitude 10° 19:07:02 10° 333° (NNW) 2,436 5.5 -23.5°
Maximum altitude 19:12:36 78° 248° (WSW) 847 2.7 -24.5°
Enters shadow 19:15:07 34° 167° (SSE) 1,334 3.5 -25.0°
